{"data":{"norad_id":69558,"epoch":"2026-09-19T22:22:00.289056Z","epoch_age_seconds":70712,"freshness":"FRESH","line1":"1 69558U 26135N   26262.93194779  .00011013  00000+0  34285-3 0  9997","line2":"2 69558  97.2851 290.6315 0000530  87.3339 272.7964 15.33456052 14910","mean_motion":15.33456052,"eccentricity":5.3e-5,"inclination_deg":97.2851,"raan_deg":290.6315,"arg_perigee_deg":87.3339,"mean_anomaly_deg":272.7964,"bstar":0.00034285,"rev_number":1491,"period_min":93.905527851411,"perigee_km":465.14757839291,"apogee_km":465.87300500583,"semimajor_km":6843.6472916994,"source":"CELESTRAK","updated_at":"2026-09-20T09:00:44.244041Z"}}